<?xml version="1.0" encoding="UTF-8" standalone="no" ?>
<gpx xmlns="http://www.topografix.com/GPX/1/1" xmlns:xsi="http://www.w3.org/2001/XMLSchema-instance" xsi:schemaLocation="http://www.topografix.com/GPX/1/1 http://www.topografix.com/GPX/1/1/gpx.xsd" version="1.1" creator="VisuGPX - https://www.visugpx.com">
  <metadata>
    <name>Tréminis Chichilianne MAJ</name>
  </metadata>
  <trk>
    <name><![CDATA[Chris Cath ColdelaCroix]]></name>
    <trkseg>
      <trkpt lat="44.74579" lon="5.76808">
        <ele>928</ele>
        <time>2004-07-26T16:50:38Z</time>
      </trkpt>
      <trkpt lat="44.7453" lon="5.76811">
        <ele>924</ele>
        <time>2004-07-26T16:50:38Z</time>
      </trkpt>
      <trkpt lat="44.74498" lon="5.76825">
        <ele>923</ele>
        <time>2004-07-26T16:50:38Z</time>
      </trkpt>
      <trkpt lat="44.74395" lon="5.76746">
        <ele>914</ele>
        <time>2004-07-26T16:50:38Z</time>
      </trkpt>
      <trkpt lat="44.74299" lon="5.76646">
        <ele>908</ele>
        <time>2004-07-26T16:50:38Z</time>
      </trkpt>
      <trkpt lat="44.74249" lon="5.76589">
        <ele>905</ele>
        <time>2004-07-26T16:50:38Z</time>
      </trkpt>
      <trkpt lat="44.74162" lon="5.76555">
        <ele>907</ele>
        <time>2004-07-26T16:50:38Z</time>
      </trkpt>
      <trkpt lat="44.74139" lon="5.76503">
        <ele>906</ele>
        <time>2004-07-26T16:50:38Z</time>
      </trkpt>
      <trkpt lat="44.74116" lon="5.76502">
        <ele>908</ele>
        <time>2004-07-26T16:50:38Z</time>
      </trkpt>
      <trkpt lat="44.74086" lon="5.76522">
        <ele>911</ele>
        <time>2004-07-26T16:50:38Z</time>
      </trkpt>
      <trkpt lat="44.73985" lon="5.76456">
        <ele>902</ele>
        <time>2004-07-26T16:50:38Z</time>
      </trkpt>
      <trkpt lat="44.73948" lon="5.76425">
        <ele>900</ele>
        <time>2004-07-26T16:50:38Z</time>
      </trkpt>
      <trkpt lat="44.7388" lon="5.76418">
        <ele>900</ele>
        <time>2004-07-26T16:50:38Z</time>
      </trkpt>
      <trkpt lat="44.73845" lon="5.76466">
        <ele>903</ele>
        <time>2004-07-26T16:50:38Z</time>
      </trkpt>
      <trkpt lat="44.73754" lon="5.76505">
        <ele>904</ele>
        <time>2004-07-26T16:50:38Z</time>
      </trkpt>
      <trkpt lat="44.7364" lon="5.76545">
        <ele>909</ele>
        <time>2004-07-26T16:50:38Z</time>
      </trkpt>
      <trkpt lat="44.7358" lon="5.76523">
        <ele>910</ele>
        <time>2004-07-26T16:50:38Z</time>
      </trkpt>
      <trkpt lat="44.73541" lon="5.76489">
        <ele>909</ele>
        <time>2004-07-26T16:50:38Z</time>
      </trkpt>
      <trkpt lat="44.73487" lon="5.76466">
        <ele>908</ele>
        <time>2004-07-26T16:50:38Z</time>
      </trkpt>
      <trkpt lat="44.73464" lon="5.76408">
        <ele>903</ele>
        <time>2004-07-26T16:50:38Z</time>
      </trkpt>
      <trkpt lat="44.73448" lon="5.76341">
        <ele>900</ele>
        <time>2004-07-26T16:50:38Z</time>
      </trkpt>
      <trkpt lat="44.73376" lon="5.76346">
        <ele>901</ele>
        <time>2004-07-26T16:50:38Z</time>
      </trkpt>
      <trkpt lat="44.73316" lon="5.76342">
        <ele>902</ele>
        <time>2004-07-26T16:50:38Z</time>
      </trkpt>
      <trkpt lat="44.73216" lon="5.76431">
        <ele>902</ele>
        <time>2004-07-26T16:50:38Z</time>
      </trkpt>
      <trkpt lat="44.73142" lon="5.76508">
        <ele>906</ele>
        <time>2004-07-26T16:50:38Z</time>
      </trkpt>
      <trkpt lat="44.73089" lon="5.76534">
        <ele>909</ele>
        <time>2004-07-26T16:50:38Z</time>
      </trkpt>
      <trkpt lat="44.73001" lon="5.76541">
        <ele>914</ele>
        <time>2004-07-26T16:50:38Z</time>
      </trkpt>
      <trkpt lat="44.72942" lon="5.76556">
        <ele>918</ele>
        <time>2004-07-26T16:50:38Z</time>
      </trkpt>
      <trkpt lat="44.72821" lon="5.76609">
        <ele>930</ele>
        <time>2004-07-26T16:50:38Z</time>
      </trkpt>
      <trkpt lat="44.72697" lon="5.76693">
        <ele>935</ele>
        <time>2004-07-26T16:50:38Z</time>
      </trkpt>
      <trkpt lat="44.72644" lon="5.76743">
        <ele>941</ele>
        <time>2004-07-26T16:50:38Z</time>
      </trkpt>
      <trkpt lat="44.72578" lon="5.76758">
        <ele>946</ele>
        <time>2004-07-26T16:50:38Z</time>
      </trkpt>
      <trkpt lat="44.72551" lon="5.76741">
        <ele>948</ele>
        <time>2004-07-26T16:50:38Z</time>
      </trkpt>
      <trkpt lat="44.72436" lon="5.76753">
        <ele>952</ele>
        <time>2004-07-26T16:50:38Z</time>
      </trkpt>
      <trkpt lat="44.72384" lon="5.76759">
        <ele>953</ele>
        <time>2004-07-26T16:50:38Z</time>
      </trkpt>
      <trkpt lat="44.72266" lon="5.76647">
        <ele>966</ele>
        <time>2004-07-26T16:50:38Z</time>
      </trkpt>
      <trkpt lat="44.72162" lon="5.766">
        <ele>978</ele>
        <time>2004-07-26T16:50:38Z</time>
      </trkpt>
      <trkpt lat="44.72069" lon="5.76566">
        <ele>986</ele>
        <time>2004-07-26T16:50:38Z</time>
      </trkpt>
      <trkpt lat="44.71961" lon="5.7654">
        <ele>989</ele>
        <time>2004-07-26T16:50:38Z</time>
      </trkpt>
      <trkpt lat="44.71896" lon="5.7653">
        <ele>991</ele>
        <time>2004-07-26T16:50:38Z</time>
      </trkpt>
      <trkpt lat="44.71846" lon="5.76568">
        <ele>986</ele>
        <time>2004-07-26T16:50:38Z</time>
      </trkpt>
      <trkpt lat="44.71793" lon="5.76581">
        <ele>984</ele>
        <time>2004-07-26T16:50:38Z</time>
      </trkpt>
      <trkpt lat="44.71709" lon="5.76632">
        <ele>999</ele>
        <time>2004-07-26T16:50:38Z</time>
      </trkpt>
      <trkpt lat="44.71645" lon="5.76654">
        <ele>1008</ele>
        <time>2004-07-26T16:50:38Z</time>
      </trkpt>
      <trkpt lat="44.71577" lon="5.76659">
        <ele>1016</ele>
        <time>2004-07-26T16:50:38Z</time>
      </trkpt>
      <trkpt lat="44.71531" lon="5.76684">
        <ele>1020</ele>
        <time>2004-07-26T16:50:38Z</time>
      </trkpt>
      <trkpt lat="44.71448" lon="5.76774">
        <ele>1033</ele>
        <time>2004-07-26T16:50:38Z</time>
      </trkpt>
      <trkpt lat="44.71413" lon="5.768">
        <ele>1038</ele>
        <time>2004-07-26T16:50:38Z</time>
      </trkpt>
      <trkpt lat="44.71391" lon="5.76859">
        <ele>1043</ele>
        <time>2004-07-26T16:50:38Z</time>
      </trkpt>
      <trkpt lat="44.71346" lon="5.76926">
        <ele>1052</ele>
        <time>2004-07-26T16:50:38Z</time>
      </trkpt>
      <trkpt lat="44.71295" lon="5.77058">
        <ele>1071</ele>
        <time>2004-07-26T16:50:38Z</time>
      </trkpt>
      <trkpt lat="44.71266" lon="5.77126">
        <ele>1080</ele>
        <time>2004-07-26T16:50:38Z</time>
      </trkpt>
      <trkpt lat="44.71228" lon="5.77187">
        <ele>1093</ele>
        <time>2004-07-26T16:50:38Z</time>
      </trkpt>
      <trkpt lat="44.71147" lon="5.77257">
        <ele>1111</ele>
        <time>2004-07-26T16:50:38Z</time>
      </trkpt>
      <trkpt lat="44.71065" lon="5.77287">
        <ele>1131</ele>
        <time>2004-07-26T16:50:38Z</time>
      </trkpt>
      <trkpt lat="44.71028" lon="5.77326">
        <ele>1148</ele>
        <time>2004-07-26T16:50:38Z</time>
      </trkpt>
      <trkpt lat="44.71022" lon="5.77294">
        <ele>1141</ele>
        <time>2004-07-26T16:50:38Z</time>
      </trkpt>
      <trkpt lat="44.71034" lon="5.772">
        <ele>1146</ele>
        <time>2004-07-26T16:50:38Z</time>
      </trkpt>
      <trkpt lat="44.71029" lon="5.77149">
        <ele>1163</ele>
        <time>2004-07-26T16:50:38Z</time>
      </trkpt>
      <trkpt lat="44.71049" lon="5.77128">
        <ele>1165</ele>
        <time>2004-07-26T16:50:38Z</time>
      </trkpt>
      <trkpt lat="44.70986" lon="5.77137">
        <ele>1178</ele>
        <time>2004-07-26T16:50:38Z</time>
      </trkpt>
      <trkpt lat="44.70909" lon="5.77148">
        <ele>1203</ele>
        <time>2004-07-26T16:50:38Z</time>
      </trkpt>
      <trkpt lat="44.70918" lon="5.77231">
        <ele>1206</ele>
        <time>2004-07-26T16:50:38Z</time>
      </trkpt>
      <trkpt lat="44.7093" lon="5.77263">
        <ele>1198</ele>
        <time>2004-07-26T16:50:38Z</time>
      </trkpt>
      <trkpt lat="44.70854" lon="5.77265">
        <ele>1231</ele>
        <time>2004-07-26T16:50:38Z</time>
      </trkpt>
      <trkpt lat="44.70765" lon="5.77234">
        <ele>1266</ele>
        <time>2004-07-26T16:50:38Z</time>
      </trkpt>
      <trkpt lat="44.70743" lon="5.77277">
        <ele>1274</ele>
        <time>2004-07-26T16:50:38Z</time>
      </trkpt>
      <trkpt lat="44.70723" lon="5.77279">
        <ele>1285</ele>
        <time>2004-07-26T16:50:38Z</time>
      </trkpt>
      <trkpt lat="44.70677" lon="5.7744">
        <ele>1301</ele>
        <time>2004-07-26T16:50:38Z</time>
      </trkpt>
      <trkpt lat="44.70658" lon="5.7747">
        <ele>1311</ele>
        <time>2004-07-26T16:50:38Z</time>
      </trkpt>
      <trkpt lat="44.70662" lon="5.77575">
        <ele>1299</ele>
        <time>2004-07-26T16:50:38Z</time>
      </trkpt>
      <trkpt lat="44.70584" lon="5.77681">
        <ele>1326</ele>
        <time>2004-07-26T16:50:38Z</time>
      </trkpt>
      <trkpt lat="44.7059" lon="5.77716">
        <ele>1316</ele>
        <time>2004-07-26T16:50:38Z</time>
      </trkpt>
      <trkpt lat="44.70543" lon="5.77785">
        <ele>1350</ele>
        <time>2004-07-26T16:50:38Z</time>
      </trkpt>
      <trkpt lat="44.70547" lon="5.77801">
        <ele>1353</ele>
        <time>2004-07-26T16:50:38Z</time>
      </trkpt>
      <trkpt lat="44.70535" lon="5.77823">
        <ele>1367</ele>
        <time>2004-07-26T16:50:38Z</time>
      </trkpt>
      <trkpt lat="44.70556" lon="5.77862">
        <ele>1364</ele>
        <time>2004-07-26T16:50:38Z</time>
      </trkpt>
      <trkpt lat="44.70561" lon="5.77995">
        <ele>1384</ele>
        <time>2004-07-26T16:50:38Z</time>
      </trkpt>
      <trkpt lat="44.7057" lon="5.7808">
        <ele>1399</ele>
        <time>2004-07-26T16:50:38Z</time>
      </trkpt>
      <trkpt lat="44.70605" lon="5.78165">
        <ele>1393</ele>
        <time>2004-07-26T16:50:38Z</time>
      </trkpt>
      <trkpt lat="44.70615" lon="5.782">
        <ele>1394</ele>
        <time>2004-07-26T16:50:38Z</time>
      </trkpt>
      <trkpt lat="44.706" lon="5.78186">
        <ele>1398</ele>
        <time>2004-07-26T16:50:38Z</time>
      </trkpt>
      <trkpt lat="44.70607" lon="5.7825">
        <ele>1401</ele>
        <time>2004-07-26T16:50:38Z</time>
      </trkpt>
      <trkpt lat="44.70616" lon="5.78336">
        <ele>1408</ele>
        <time>2004-07-26T16:50:38Z</time>
      </trkpt>
      <trkpt lat="44.70597" lon="5.78432">
        <ele>1434</ele>
        <time>2004-07-26T16:50:38Z</time>
      </trkpt>
      <trkpt lat="44.70545" lon="5.78372">
        <ele>1437</ele>
        <time>2004-07-26T16:50:38Z</time>
      </trkpt>
      <trkpt lat="44.70471" lon="5.7828">
        <ele>1446</ele>
        <time>2004-07-26T16:50:38Z</time>
      </trkpt>
      <trkpt lat="44.70411" lon="5.78187">
        <ele>1461</ele>
        <time>2004-07-26T16:50:38Z</time>
      </trkpt>
      <trkpt lat="44.70342" lon="5.78098">
        <ele>1469</ele>
        <time>2004-07-26T16:50:38Z</time>
      </trkpt>
      <trkpt lat="44.70272" lon="5.78087">
        <ele>1481</ele>
        <time>2004-07-26T16:50:38Z</time>
      </trkpt>
      <trkpt lat="44.70171" lon="5.78097">
        <ele>1483</ele>
        <time>2004-07-26T16:50:38Z</time>
      </trkpt>
      <trkpt lat="44.70157" lon="5.78115">
        <ele>1487</ele>
        <time>2004-07-26T16:50:38Z</time>
      </trkpt>
      <trkpt lat="44.70076" lon="5.78101">
        <ele>1492</ele>
        <time>2004-07-26T16:50:38Z</time>
      </trkpt>
      <trkpt lat="44.70035" lon="5.78048">
        <ele>1492</ele>
        <time>2004-07-26T16:50:38Z</time>
      </trkpt>
    </trkseg>
  </trk>
</gpx>